Погода в Коггале

Шри-Ланка     6°02′20″N   80°12′57″E
темп.,
°C
ветер,
м/с
пор.,
м/с
влажн.,
%
обл.,
%
осадки,
мм/ч
давл.,
гПа
погр.,
м
16 апреля, пт
пт1623:30+27з1275100 0.8 1011551
02:30+27зсз2378100 0.1 1009558
05:30+27сз247997 1.9 1010503
08:30+27сз2381100 7.4 1012176
11:30+30з3365100 8.3 1012887
14:30+30з4466100 0.1 1009992
17:30+29зюз447186 0.4 1009844
20:30+28зюз347590 0.1 1012547
17 апреля, сб
сб1723:30+27зсз2280100 2.5 1012250
02:30+27зюз1179100 5.3 1010160
05:30+26в1281100 6.9 1011196
08:30+28ю1273100 0.1 1013649
11:30+30юз4366100 0.1 10121050
14:30+30юз446825 0.1 1009995
17:30+29зюз3473100 2.7 1010578
20:30+27зюз237999 4.9 1013241
18 апреля, вс
вс1823:30+28юз347687 6.8 1013593
02:30+27юз4580100 5.1 1011371
05:30+26юз5787100 13.3 1012448
08:30+27зюз247973 1.1 1015507
11:30+30зюз446770 1.1 10131088
14:30+29зюз556899 0.1 10101037
17:30+29зюз456997 0.1 1010811
20:30+28зюз4573100 0.0 1012483
19 апреля, пн
пн1923:30+28зюз457332 0.1 1012596
02:30+28зюз467782 0.1 1010418
05:30+28зюз457593 0.2 1011464
08:30+29з346922 0.3 1013999
11:30+30з556883 0.8 10121110
14:30+30зюз567097 0.3 10091072
17:30+29зюз677415 0.6 1009826
20:30+28з577834 0.3 1011694
20 апреля, вт
вт2023:30+28з577958 0.9 1011657
02:30+27з568196 0.7 1009629
05:30+27з468199 1.4 1010596
08:30+29з4576100 0.5 1012852
11:30+30з5571100 0.9 10111036
14:30+30з5672100 0.3 10081026
17:30+29з557415 0.7 1008863
20:30+28з568019 0.1 1010628